TimeCST,TemperatureF,Dew PointF,Humidity,Sea Level PressureIn,VisibilityMPH,Wind Direction,Wind SpeedMPH,Gust SpeedMPH,PrecipitationIn,Events,Conditions,WindDirDegrees,DateUTC
12:53 AM,37.9,30.9,76,29.71,10.0,West,13.8,-,N/A,,Clear,280,2013-02-14 06:53:00
1:53 AM,37.0,30.0,76,29.71,10.0,West,17.3,-,N/A,,Clear,280,2013-02-14 07:53:00
2:53 AM,36.0,30.0,79,29.73,10.0,WNW,16.1,23.0,N/A,,Clear,290,2013-02-14 08:53:00
3:10 AM,35.6,30.2,81,29.73,10.0,WNW,17.3,-,N/A,,Mostly Cloudy,290,2013-02-14 09:10:00
3:53 AM,36.0,30.0,79,29.74,10.0,WNW,18.4,28.8,N/A,,Overcast,300,2013-02-14 09:53:00
4:53 AM,35.1,28.9,78,29.77,10.0,NW,16.1,27.6,N/A,,Overcast,310,2013-02-14 10:53:00
5:53 AM,34.0,28.0,79,29.81,10.0,NW,19.6,29.9,N/A,,Overcast,320,2013-02-14 11:53:00
6:26 AM,33.8,28.4,81,29.80,10.0,WNW,13.8,-,N/A,,Scattered Clouds,300,2013-02-14 12:26:00
6:53 AM,33.1,28.9,85,29.84,10.0,WNW,13.8,-,N/A,,Mostly Cloudy,300,2013-02-14 12:53:00
7:53 AM,33.1,28.9,85,29.87,10.0,NW,12.7,20.7,N/A,,Overcast,310,2013-02-14 13:53:00
8:53 AM,34.0,28.9,82,29.90,10.0,NW,13.8,20.7,N/A,,Overcast,310,2013-02-14 14:53:00
9:53 AM,34.0,28.9,82,29.92,10.0,WNW,10.4,-,N/A,,Overcast,290,2013-02-14 15:53:00
10:53 AM,35.1,28.9,78,29.94,10.0,WNW,11.5,-,N/A,,Overcast,300,2013-02-14 16:53:00
11:36 AM,37.4,28.4,70,29.92,10.0,WNW,10.4,-,N/A,,Mostly Cloudy,290,2013-02-14 17:36:00
11:46 AM,37.4,30.2,75,29.92,10.0,WNW,11.5,-,N/A,,Mostly Cloudy,300,2013-02-14 17:46:00
11:53 AM,37.0,30.0,76,29.94,10.0,WNW,12.7,-,N/A,,Mostly Cloudy,300,2013-02-14 17:53:00
12:15 PM,37.4,28.4,70,29.92,10.0,WNW,9.2,-,N/A,,Overcast,300,2013-02-14 18:15:00
12:53 PM,37.9,30.0,73,29.93,10.0,WNW,15.0,-,N/A,,Overcast,290,2013-02-14 18:53:00
1:53 PM,37.9,30.0,73,29.93,10.0,WNW,13.8,20.7,N/A,,Overcast,290,2013-02-14 19:53:00
2:11 PM,37.4,30.2,75,29.92,10.0,WNW,12.7,-,N/A,,Overcast,290,2013-02-14 20:11:00
2:53 PM,37.9,28.0,68,29.95,10.0,WNW,15.0,26.5,N/A,,Overcast,290,2013-02-14 20:53:00
3:34 PM,35.6,26.6,70,29.95,2.5,WNW,16.1,34.5,0.00,Snow,Light Snow,300,2013-02-14 21:34:00
3:41 PM,37.4,28.4,70,29.95,9.0,WNW,17.3,24.2,0.00,,Mostly Cloudy,290,2013-02-14 21:41:00
3:53 PM,37.0,28.9,73,29.98,10.0,NW,19.6,23.0,0.00,,Overcast,310,2013-02-14 21:53:00
4:04 PM,35.6,28.4,75,29.97,1.8,NW,21.9,29.9,0.00,Snow,Light Snow,310,2013-02-14 22:04:00
4:14 PM,35.6,30.2,81,29.97,3.0,WNW,13.8,25.3,0.00,Snow,Light Snow,300,2013-02-14 22:14:00
4:53 PM,35.1,28.0,76,30.01,10.0,NW,21.9,31.1,0.00,,Scattered Clouds,320,2013-02-14 22:53:00
5:35 PM,33.8,26.6,75,30.02,10.0,NNW,16.1,-,N/A,,Mostly Cloudy,340,2013-02-14 23:35:00
5:53 PM,32.0,27.0,82,30.05,10.0,NNW,16.1,-,N/A,,Mostly Cloudy,330,2013-02-14 23:53:00
6:53 PM,30.9,24.1,76,30.08,10.0,NNW,19.6,-,N/A,,Overcast,340,2013-02-15 00:53:00
7:19 PM,30.2,23.0,75,30.06,10.0,NNW,17.3,25.3,N/A,,Scattered Clouds,340,2013-02-15 01:19:00
7:53 PM,28.9,23.0,78,30.10,10.0,NNW,16.1,-,N/A,,Partly Cloudy,330,2013-02-15 01:53:00
8:53 PM,27.0,21.0,78,30.13,10.0,NNW,19.6,24.2,N/A,,Clear,330,2013-02-15 02:53:00
9:53 PM,25.0,15.1,66,30.16,10.0,NNW,24.2,29.9,N/A,,Clear,340,2013-02-15 03:53:00
10:53 PM,24.1,12.9,62,30.19,10.0,NNW,17.3,28.8,N/A,,Clear,340,2013-02-15 04:53:00
11:53 PM,21.9,14.0,72,30.21,10.0,NNW,13.8,-,N/A,,Clear,340,2013-02-15 05:53:00